sat.trackr.live / text

‹ back to catalog

HULIANWANG DIGUI-46

NORAD 65049 · 2025-162G

PAYLOAD ACTIVE UNKNOWN

§ Identity

Operator
Country
PRC
Launch date
2025-07-30
Launch site
WSC
Launch vehicle
Mass (kg)
RCS (m²)

External: N2YO · Heavens-Above · Gunter

§ Orbital elements

Epoch: 2026-05-25T02:39:57.661056Z

Period
108.33 min
Inclination
50.0079°
Eccentricity
0.0000493
Mean motion
13.29323511 rev/d
Perigee alt
1,148.9 km
Apogee alt
1,149.7 km
Semi-major
7,527.5 km
B*
9.7530e-5
RAAN
348.4326°
Arg perigee
41.1498°
Mean anomaly
318.9412°
Rev number
4,029

§ Raw data

HULIANWANG DIGUI-461 65049U 25162G   26145.11108404 -.00000079  00000+0  97530-4 0  99912 65049  50.0079 348.4326 0000493  41.1498 318.9412 13.29323511 40293

JSON: /api/v1/satellites/65049 · /tle

For live sub-satellite position, see the globe view (requires WebGL).

§ Visibility from observer

Set your observer location to see the next 7 days of passes ≥ 10°. The values pass through the URL so the page stays shareable.

No JS? Fill the form by hand. The geolocation button needs JavaScript.